Regional Weather Roundup
Issued by NWS

Home | Current Version | Previous Version | Text Only | Print | Product List | Glossary On
Versions: 1 2 3 4 5 6 7 8 9 10 11 12 13 14 15 16 17 18 19 20 21 22 23 24 25 26 27 28 29 30 31 32 33 34 35 36 37 38 39 40 41 42 43 44 45 46 47 48 49 50
000
ASUS43 KFSD 020902
RWRSD

WEATHER ROUNDUP FOR SOUTH DAKOTA
NATIONAL WEATHER SERVICE SIOUX FALLS SD
400 AM CDT SAT AUG 02 2014

NOTE: "FAIR" INDICATES FEW OR NO CLOUDS BELOW 12,000 FEET WITH NO
SIGNIFICANT WEATHER AND/OR OBSTRUCTIONS TO VISIBILITY.


SDZ001>005-009-010-012>017-021000-
NORTHWEST AND NORTH CENTRAL SOUTH DAKOTA

CITY           SKY/WX    TMP DP  RH WIND       PRES   REMARKS
BUFFALO          N/A     59  57  93 NE9       30.07S
FAITH            N/A     63  56  78 SE13      30.08F
MOBRIDGE       MOCLDY    65  61  87 S7        30.05S
$$

SDZ012>016-024>037-041>051-057-063-072>074-021000-
SOUTHWEST AND SOUTH CENTRAL SOUTH DAKOTA

CITY           SKY/WX    TMP DP  RH WIND       PRES   REMARKS
RAPID CTY ARPT PTCLDY    70  50  49 NW12      30.10R
PIERRE         MOCLDY    65  60  84 E9        30.07F
CUSTER         MOCLDY    60  42  51 NW7       30.25F
ELLSWORTH AFB  CLEAR     73  53  50 N13       30.09R
PHILIP         PTCLDY    67  58  72 NE13      30.06R
PINE RIDGE     CLEAR     53  50  89 CALM      30.11R
WINNER         FAIR      67  58  72 S8        30.07S
$$

SDZ004>011-016>023-039-040-021000-
NORTHEAST SOUTH DAKOTA

CITY           SKY/WX    TMP DP  RH WIND       PRES   REMARKS
ABERDEEN       CLOUDY    64  60  87 W3        30.09F
WATERTOWN      PTCLDY    61  57  87 SE3       30.12R
SISSETON         N/A     60  59  96 CALM      30.09R
$$

SDZ017-020-022-023-036>040-048>070-021000-
SOUTHEAST SOUTH DAKOTA

CITY           SKY/WX    TMP DP  RH WIND       PRES   REMARKS
SIOUX FALLS    PTCLDY    61  57  87 CALM      30.11F
HURON          CLOUDY    67  58  72 NW8       30.12R
CHAMBERLAIN    MOCLDY    66  60  83 NE3G26    30.12R
MITCHELL       MOCLDY    63  60  90 SE8       30.07S
YANKTON        CLOUDY    64  61  88 E7        30.10F
$$

ABBREVIATIONS USED IN REMARKS
   TC - TEMPERATURE IN CELSIUS
  WCI - WIND CHILL INDEX
   HX - HEAT INDEX
  VSB - VISIBILITY



USA.gov is the U.S. government's official web portal to all federal, state and local government web resources and services.